When you browse on this site, cookies collect data to enhance your experience and personalize the content and advertising you see.
Visit our Privacy Policy to learn more. By continuing to use the site, you agree to this use of cookies and data.
  • In Hungary
  • List of Countries
  • For 7 days
  • Water Temperature
  • Weather Map
  • News
  • Weather Widgets
  • user-avatar
    Login

    Hourly Weather Ustrovka

    Today, 21 January, Tuesday

    Time Temperature Precipitation Wind Pressure Humidity
    00:00 -2°C° 0.1 mm 5 mps 744 mmHg 92%
    01:00 -1°C° 0.1 mm 5 mps 743 mmHg 92%
    02:00 -1°C° 0.1 mm 5 mps 743 mmHg 93%
    03:00 -1°C° 0.4 mm 5 mps 741 mmHg 94%
    04:00 0°C° 0.4 mm 5 mps 740 mmHg 94%
    05:00 0°C° 0.4 mm 5 mps 739 mmHg 95%
    06:00 +1°C° 0.2 mm 5 mps 738 mmHg 94%
    07:00 +1°C° 0.2 mm 6 mps 737 mmHg 92%
    08:00 +2°C° 0.2 mm 6 mps 736 mmHg 90%
    09:00 +2°C° 0.1 mm 6 mps 736 mmHg 89%
    10:00 +2°C° 0.1 mm 6 mps 735 mmHg 88%
    11:00 +3°C° 0.1 mm 6 mps 735 mmHg 87%
    12:00 +3°C° 0 mm 6 mps 734 mmHg 85%
    13:00 +3°C° 0 mm 6 mps 734 mmHg 83%
    14:00 +3°C° 0 mm 6 mps 734 mmHg 82%
    15:00 +2°C° 0.1 mm 5 mps 733 mmHg 83%
    16:00 +2°C° 0.1 mm 5 mps 733 mmHg 85%
    17:00 +2°C° 0.1 mm 5 mps 732 mmHg 86%
    18:00 +1°C° 0.1 mm 5 mps 732 mmHg 85%
    19:00 -1°C° 0.1 mm 6 mps 732 mmHg 83%
    20:00 -1°C° 0.1 mm 6 mps 732 mmHg 82%
    21:00 -2°C° 0 mm 6 mps 732 mmHg 80%
    22:00 -3°C° 0 mm 6 mps 732 mmHg 78%
    23:00 -3°C° 0 mm 6 mps 732 mmHg 76%

    Tomorrow, 22 January, Wednesday

    Time Temperature Precipitation Wind Pressure Humidity
    00:00 -4°C° 0 mm 6 mps 732 mmHg 76%
    01:00 -4°C° 0 mm 6 mps 732 mmHg 77%
    02:00 -4°C° 0 mm 6 mps 732 mmHg 77%
    03:00 -4°C° 0 mm 6 mps 731 mmHg 79%
    04:00 -4°C° 0 mm 6 mps 730 mmHg 81%
    05:00 -4°C° 0 mm 5 mps 730 mmHg 82%
    06:00 -4°C° 0.1 mm 5 mps 729 mmHg 81%
    07:00 -4°C° 0.1 mm 5 mps 729 mmHg 79%
    08:00 -5°C° 0.1 mm 5 mps 729 mmHg 78%
    09:00 -4°C° 0 mm 5 mps 729 mmHg 76%
    10:00 -4°C° 0 mm 6 mps 729 mmHg 75%
    11:00 -4°C° 0 mm 6 mps 729 mmHg 73%
    12:00 -4°C° 0 mm 6 mps 729 mmHg 73%
    13:00 -4°C° 0 mm 6 mps 729 mmHg 72%
    14:00 -4°C° 0 mm 6 mps 729 mmHg 72%
    15:00 -5°C° 0.2 mm 6 mps 730 mmHg 77%
    16:00 -5°C° 0.2 mm 6 mps 730 mmHg 82%
    17:00 -5°C° 0.2 mm 6 mps 730 mmHg 86%
    18:00 -6°C° 0.1 mm 6 mps 731 mmHg 84%
    19:00 -6°C° 0.1 mm 6 mps 731 mmHg 81%
    20:00 -6°C° 0.1 mm 6 mps 732 mmHg 79%
    21:00 -8°C° 0 mm 6 mps 733 mmHg 77%
    22:00 -8°C° 0 mm 6 mps 733 mmHg 76%
    23:00 -9°C° 0 mm 6 mps 734 mmHg 74%

    Day after tomorrow, 23 January, Thursday

    Time Temperature Precipitation Wind Pressure Humidity
    00:00 -9°C° 0 mm 6 mps 735 mmHg 74%
    01:00 -10°C° 0 mm 6 mps 735 mmHg 73%
    02:00 -10°C° 0 mm 6 mps 736 mmHg 72%
    03:00 -10°C° 0 mm 6 mps 736 mmHg 69%
    04:00 -10°C° 0 mm 6 mps 736 mmHg 67%
    05:00 -11°C° 0 mm 6 mps 737 mmHg 64%
    06:00 -10°C° 0 mm 6 mps 737 mmHg 64%
    07:00 -10°C° 0 mm 6 mps 737 mmHg 64%
    08:00 -10°C° 0 mm 6 mps 738 mmHg 65%
    09:00 -10°C° 0 mm 6 mps 738 mmHg 64%
    10:00 -10°C° 0 mm 6 mps 738 mmHg 63%
    11:00 -10°C° 0 mm 6 mps 739 mmHg 63%
    12:00 -10°C° 0 mm 6 mps 739 mmHg 63%
    13:00 -10°C° 0 mm 6 mps 740 mmHg 63%
    14:00 -10°C° 0 mm 6 mps 740 mmHg 63%
    15:00 -10°C° 0 mm 5 mps 741 mmHg 65%
    16:00 -10°C° 0 mm 5 mps 741 mmHg 67%
    17:00 -11°C° 0 mm 5 mps 742 mmHg 68%
    18:00 -10°C° 0 mm 4 mps 742 mmHg 69%
    19:00 -10°C° 0 mm 4 mps 743 mmHg 71%
    20:00 -9°C° 0 mm 3 mps 743 mmHg 72%
    21:00 -9°C° 0 mm 3 mps 743 mmHg 73%
    22:00 -9°C° 0 mm 3 mps 743 mmHg 74%
    23:00 -9°C° 0 mm 3 mps 743 mmHg 75%

    24 January, Friday

    Time Temperature Precipitation Wind Pressure Humidity
    00:00 -9°C° 0 mm 3 mps 742 mmHg 72%
    01:00 -9°C° 0 mm 3 mps 742 mmHg 70%
    02:00 -8°C° 0 mm 3 mps 741 mmHg 68%
    03:00 -8°C° 0.2 mm 3 mps 741 mmHg 76%
    04:00 -7°C° 0.2 mm 3 mps 740 mmHg 85%
    05:00 -8°C° 0.2 mm 4 mps 739 mmHg 93%
    06:00 -7°C° 0.3 mm 4 mps 739 mmHg 94%
    07:00 -5°C° 0.3 mm 4 mps 738 mmHg 94%
    08:00 -5°C° 0.3 mm 4 mps 738 mmHg 95%
    09:00 -4°C° 0.1 mm 4 mps 737 mmHg 95%
    10:00 -3°C° 0.1 mm 4 mps 737 mmHg 94%
    11:00 -2°C° 0.1 mm 4 mps 737 mmHg 94%
    12:00 -2°C° 0 mm 5 mps 737 mmHg 94%
    13:00 -1°C° 0 mm 5 mps 737 mmHg 93%
    14:00 -1°C° 0 mm 5 mps 737 mmHg 93%
    15:00 -1°C° 0 mm 4 mps 737 mmHg 91%
    16:00 -2°C° 0 mm 4 mps 738 mmHg 89%
    17:00 -2°C° 0 mm 4 mps 738 mmHg 87%
    18:00 -2°C° 0 mm 4 mps 738 mmHg 87%
    19:00 -2°C° 0 mm 4 mps 738 mmHg 88%
    20:00 -1°C° 0 mm 3 mps 739 mmHg 88%
    21:00 -1°C° 0.1 mm 3 mps 738 mmHg 91%
    22:00 -1°C° 0.1 mm 2 mps 738 mmHg 94%
    23:00 -1°C° 0.1 mm 2 mps 738 mmHg 97%

    25 January, Saturday

    Time Temperature Precipitation Wind Pressure Humidity
    00:00 -1°C° 0.4 mm 2 mps 737 mmHg 97%
    01:00 -1°C° 0.4 mm 2 mps 737 mmHg 98%
    02:00 +1°C° 0.4 mm 2 mps 737 mmHg 98%
    03:00 0°C° 0.4 mm 3 mps 736 mmHg 98%
    04:00 +1°C° 0.4 mm 3 mps 736 mmHg 97%
    05:00 0°C° 0.4 mm 4 mps 735 mmHg 97%
    06:00 0°C° 0.3 mm 4 mps 735 mmHg 97%
    07:00 0°C° 0.3 mm 4 mps 735 mmHg 96%
    08:00 +1°C° 0.3 mm 5 mps 735 mmHg 96%
    09:00 +1°C° 0.1 mm 5 mps 735 mmHg 95%
    10:00 +1°C° 0.1 mm 5 mps 736 mmHg 95%
    11:00 +1°C° 0.1 mm 4 mps 736 mmHg 94%
    12:00 +1°C° 0.1 mm 4 mps 737 mmHg 91%
    13:00 +1°C° 0.1 mm 4 mps 737 mmHg 88%
    14:00 0°C° 0.1 mm 4 mps 737 mmHg 84%
    15:00 0°C° 0 mm 4 mps 738 mmHg 86%
    16:00 -1°C° 0 mm 4 mps 739 mmHg 88%
    17:00 -1°C° 0 mm 3 mps 739 mmHg 90%
    18:00 -2°C° 0 mm 3 mps 739 mmHg 91%
    19:00 -2°C° 0 mm 3 mps 740 mmHg 92%
    20:00 -4°C° 0 mm 3 mps 740 mmHg 93%
    21:00 -4°C° 0 mm 3 mps 740 mmHg 93%
    22:00 -4°C° 0 mm 3 mps 740 mmHg 93%
    23:00 -4°C° 0 mm 3 mps 741 mmHg 93%

    26 January, Sunday

    Time Temperature Precipitation Wind Pressure Humidity
    00:00 -4°C° 0 mm 3 mps 741 mmHg 92%
    01:00 -4°C° 0 mm 3 mps 741 mmHg 91%
    02:00 -4°C° 0 mm 3 mps 741 mmHg 90%
    03:00 -3°C° 0 mm 2 mps 741 mmHg 91%
    04:00 -3°C° 0 mm 2 mps 741 mmHg 93%
    05:00 -4°C° 0 mm 2 mps 741 mmHg 94%
    06:00 -4°C° 0 mm 2 mps 742 mmHg 94%
    07:00 -4°C° 0 mm 2 mps 742 mmHg 93%
    08:00 -4°C° 0 mm 2 mps 742 mmHg 92%
    09:00 -3°C° 0 mm 2 mps 742 mmHg 89%
    10:00 -3°C° 0 mm 2 mps 742 mmHg 86%
    11:00 -2°C° 0 mm 3 mps 742 mmHg 82%
    12:00 -2°C° 0 mm 3 mps 742 mmHg 85%
    13:00 -2°C° 0 mm 3 mps 742 mmHg 87%
    14:00 -2°C° 0 mm 4 mps 742 mmHg 89%
    15:00 -2°C° 0 mm 4 mps 741 mmHg 91%
    16:00 -2°C° 0 mm 4 mps 741 mmHg 92%
    17:00 -1°C° 0 mm 4 mps 741 mmHg 94%
    18:00 -1°C° 0 mm 4 mps 741 mmHg 94%
    19:00 -1°C° 0 mm 4 mps 741 mmHg 95%
    20:00 0°C° 0 mm 3 mps 741 mmHg 96%
    21:00 0°C° 0 mm 3 mps 740 mmHg 96%
    22:00 0°C° 0 mm 3 mps 740 mmHg 97%
    23:00 0°C° 0 mm 3 mps 740 mmHg 97%
    Show more